Вернуться в каталог

STARLINK-34003

АктивенСвязьVLEO
NORAD 63882·PAYLOAD·🇺🇸 United States

Запущен May 10, 2025 с Vandenberg Space Force Base

Loading…

Ближайшие Пролёты (ближайшие 24 часа)

TLE

СвежийSource: CelesTrak SupGP

Эпоха: Sep 14, 2026, 22:46 UTC

1 63882C 25094U   26257.94909722  .00016684  00000+0  35550-3 0  2573
2 63882  70.0005  53.6798 0003424 274.3696 247.3319 15.44755165    12

Отслеживайте STARLINK-34003 в реальном времени с AllMySat

Download on the App Store